Regional Weather Roundup
Issued by NWS Sterling, VA

Home | Current Version | Previous Version | Graphics & Text | Print | Product List | Glossary On
Versions: 1 2 3 4 5 6 7 8 9 10 11 12 13 14 15 16 17 18 19 20 21 22 23 24 25 26 27
000
ASUS41 KLWX 250411
RWRLWX

REGIONAL WEATHER ROUNDUP
NATIONAL WEATHER SERVICE BALTIMORE MD/WASHINGTON DC
1200 AM EDT THU MAY 25 2017

Note: "FAIR" indicates few or no clouds below 12,000 feet
with no significant weather and/or obstructions to visibility.
 TC=TEMPERATURE CELSIUS

 * =Non NWS site. Station does not report precipitation (e.g. rain,
    snow, etc.), thunder, or fog.

DCZ001-MDZ009-015-VAZ040>042-051-053>054-250500-
WASHINGTON METRO

CITY           SKY/WX    TMP DP  RH WIND       PRES   REMARKS
WASHINGTON NAT LGT RAIN  59  58  96 E9        29.69F
DULLES         RAIN      58  55  90 E10       29.66F FOG
ANDREWS AFB    LGT RAIN  57  55  93 E10       29.67F
FT BELVOIR     LGT RAIN  57  55  94 E5        29.67F
QUANTICO       LGT RAIN  60  59  96 E12       29.67F
COLLEGE PARK*  CLOUDY    56  55  94 NE6       29.69F
LEESBURG*      RAIN      59  59 100 E6        29.68F
MANASSAS*      LGT RAIN  58  56  93 E10       29.66F
GAITHERSBURG*  HVY RAIN  55  55 100 VRB7      29.69F FOG

$$

MDZ006>007-011-014-250500-
BALTIMORE METRO

CITY           SKY/WX    TMP DP  RH WIND       PRES   REMARKS
BWI AIRPORT    LGT RAIN  58  56  93 E17       29.70F
MD SCIENCE CTR   N/A     61  55  81 MISG      29.72F
MARTIN STATE   CLOUDY    61  55  82 E10G21    29.74F
ANNAPOLIS      LGT RAIN  60  58  92 MISG      29.71F
FORT MEADE*    CLOUDY    55  54  94 SE10G18   29.74S

$$

MDZ012-015-019>023-250500-
MARYLAND EASTERN SHORE

CITY           SKY/WX    TMP DP  RH WIND       PRES   REMARKS
OCEAN CITY     CLOUDY    56  54  93 E13G20    29.74F
SALISBURY      LGT RAIN  56  55  97 E14       29.73S
BAY BRIDGE AP* LGT RAIN  57  55  94 E10       29.71F
CAMBRIDGE*     CLOUDY    57  55  94 E9        29.71F FOG
EASTON*        CLOUDY    58  54  85 E8G16     29.75F

$$

MDZ017>025-250500-
SOUTHERN MARYLAND

CITY           SKY/WX    TMP DP  RH WIND       PRES   REMARKS
PATUXENT RIVER LGT RAIN  57  57 100 E18       29.68F
ST INIGOES     LGT RAIN  58  57  97 E13       29.67F
LEONARDTOWN*   CLOUDY    55  54  94 E9        29.70F

$$

MDZ003>005-250500-
NORTH CENTRAL MARYLAND

CITY           SKY/WX    TMP DP  RH WIND       PRES   REMARKS
FREDERICK*     LGT RAIN  61  55  82 E5        29.72R
HAGERSTOWN APT LGT RAIN  60  55  83 SE5       29.68F
WESTMINSTER*   CLOUDY    59  54  82 E10G18    29.68F

$$

MDZ501>502-250500-
WESTERN MARYLAND

CITY           SKY/WX    TMP DP  RH WIND       PRES   REMARKS
OAKLAND*       CLOUDY    50  50 100 SE24G30   29.62S
CUMBERLAND*    CLOUDY    59  55  88 E5        29.69F

$$

VAZ025>031-250500-
SHENANDOAH VALLEY

CITY           SKY/WX    TMP DP  RH WIND       PRES   REMARKS
WINCHESTER*    RAIN      55  54  94 E7        29.63F
FRONT ROYAL*   CLOUDY    57  55  94 CALM      29.62F
LURAY*         LGT RAIN  59  57  94 N8        29.60F
NEW MARKET*    CLOUDY    58  56  92 N3        29.59F
STAUNTON*      HVY RAIN  58  56  95 NE7       29.60F
WAYNESBORO*    CLOUDY    58  58 100 NE8       29.58F

$$

WVZ021-048>050-054>055-250500-
EASTERN WEST VIRGINIA PANHANDLE

CITY           SKY/WX    TMP DP  RH WIND       PRES   REMARKS
MARTINSBURG    LGT RAIN  57  55  93 E5        29.66F
PETERSBURG*    LGT RAIN  59  58  96 N3        29.60F

$$

VAZ036>039-050-250500-
CENTRAL FOOTHILLS

CITY           SKY/WX    TMP DP  RH WIND       PRES   REMARKS
CHARLOTTESVILL LGT RAIN  61  59  93 E9        29.59F
CULPEPER*      LGT RAIN  60  59  98 E3        29.64F
ORANGE*        LGT RAIN  57  55  94 E14G24    29.61F
GORDONSVILLE*  CLOUDY    58  58 100 E7G16     29.60F
WARRENTON*     LGT RAIN  60  56  88 E9        29.64F

$$

VAZ055>057-250500-
NORTH AND CENTRAL PIEDMONT

CITY           SKY/WX    TMP DP  RH WIND       PRES   REMARKS
FREDERICKSBRG* HVY RAIN  59  59 100 E13G20    29.64F
STAFFORD*      RAIN      58  58 100 E13G23    29.69F

$$

NCZ024-NYZ072-PAZ021-071-VAZ022-071-250500-
OTHER REGIONAL OBSERVATIONS

CITY           SKY/WX    TMP DP  RH WIND       PRES   REMARKS
NEW YORK CITY  CLOUDY    59  51  75 VRB3      29.84F
PHILADELPHIA   CLOUDY    59  51  75 E12       29.77F
PITTSBURGH     LGT RAIN  60  56  86 SE13      29.52F
ROANOKE        HVY RAIN  61  60  97 SW12G20   29.54F FOG
RICHMOND       LGT RAIN  59  58  96 E16       29.61F
RALEIGH        CLOUDY    69  67  93 S13       29.53F

$$

ANZ530>537-250500-
MARINE OBSERVATIONS

STATION/POSITION TIME  TEMP    WIND        PRES
                       AIR SEA DIR/SP/G
                 (UTC) (F)     (DEG/KT/KT) (MB)
THOMAS PT LIGHT  0400   58 64  110/ 14/ 16   N/A
BALT KEY BRIDGE  0348   60      90/ 16/ 19 1005.8F
COVE POINT       0348   57     140/ 15/ 18 1006.5F
LEWISETTA        0348   60 66  110/ 20/ 23 1004.3F
SOLOMONS ISLAND  0348          100/ 18/ 22   N/A
PINEY POINT      0348          120/ 16/ 18   N/A

$$





USA.gov is the U.S. government's official web portal to all federal, state and local government web resources and services.